Flag for Canada Weather past 2 weeks in Yorkton, Saskatchewan, Canada

Now
12 °F

Passing clouds.


Feels Like: -3 °F
Forecast: -17 / 21 °F
Wind: 13 mph from Southwest

Location: Yorkton

Current Time: Mar 5, 2015 at 1:49:44 PM

Latest Report: Mar 5, 2015 at 1:00 PM


Visibility: 9 mi

Pressure: 30.03 "Hg

Humidity: 57%

Dew point: 0 °F

Location of YorktonLocation

Historic Weather in Yorkton — Graph

°F

Yorkton temperature yesterday

Maximum temperature yesterday: -2 °F (at 4:00 PM)
Minimum temperature yesterday: -20 °F (at 8:00 AM)
Average temperature yesterday: -12 °F

Past Weeks' High & Low Weather Summary

 TemperatureHumidityPressure
High32 °F (Feb 23, 4:00 PM)100% (Feb 20, 1:00 AM)30.83 "Hg (Feb 20, 1:00 AM)
Low-27 °F (Feb 22, 4:00 AM)52% (Feb 27, 4:00 PM)29.79 "Hg (Mar 2, 5:00 PM)
Average1 °F72%30.26 "Hg
* Reported Feb 18 1:00 PM — Mar 5 1:00 PM, Yorkton, Weather by CustomWeather, © 2015

Note: Actual official high and low records may vary slightly from our data, if they occured in-between our weather recording intervals... More about our weather records

Advertising

Yorkton weather history for previous 24 hours

 ConditionsComfort  
Time TempWeatherWind HumidityBarometerVisibility
1:00 PM
Thu, Mar 5
12 °FPassing clouds.13 mph57%30.03 "Hg9 mi
12:00 PM9 °FScattered clouds.10 mph66%30.08 "Hg9 mi
11:00 AM5 °FOvercast.13 mph60%30.10 "Hg9 mi
10:00 AM0 °FOvercast.13 mph60%30.13 "Hg9 mi
9:00 AM-8 °FSunny.12 mph64%30.15 "Hg9 mi
8:00 AM-13 °FSunny.8 mph76%30.17 "Hg9 mi
7:00 AM-17 °FClear.9 mph69%30.19 "Hg9 mi
6:00 AM-15 °FClear.9 mph76%30.20 "Hg9 mi
5:00 AM-17 °FClear.7 mph76%30.22 "Hg9 mi
4:00 AM-17 °FClear.5 mph76%30.25 "Hg9 mi
3:00 AM-17 °FClear.8 mph76%30.28 "Hg9 mi
2:00 AM-15 °FClear.8 mph69%30.30 "Hg9 mi
1:00 AM-15 °FClear.8 mph69%30.32 "Hg9 mi
12:00 AM-13 °FClear.7 mph63%30.35 "Hg9 mi
11:00 PM
Wed, Mar 4
-11 °FClear.10 mph63%30.36 "Hg9 mi
10:00 PM-11 °FClear.8 mph63%30.38 "Hg9 mi
9:00 PM-9 °FClear.9 mph64%30.40 "Hg9 mi
8:00 PM-9 °FClear.10 mph64%30.40 "Hg9 mi
7:00 PM-6 °FClear.9 mph59%30.40 "Hg9 mi
6:00 PM-6 °FSunny.8 mph59%30.42 "Hg9 mi
4:00 PM-2 °FSunny.10 mph54%30.44 "Hg9 mi
3:00 PM-4 °FSunny.13 mph54%30.44 "Hg9 mi
2:00 PM-6 °FSunny.10 mph59%30.46 "Hg9 mi
1:00 PM-8 °FSunny.10 mph58%30.47 "Hg9 mi
Weather by CustomWeather, © 2015

See weather overviewHow to use our weather pages